Tracking 19800 objects as of 23-Jul-2019
HD Live streaming from Space Station
objects crossing your sky now

COSMOS 564

Track COSMOS 564 now!
10-day predictions
COSMOS 564 is classified as:


NORAD ID: 6675
Int'l Code: 1973-037A
Perigee: 1,401.7 km
Apogee: 1,486.9 km
Inclination: 74.0 °
Period: 114.6 minutes
Semi major axis: 7815 km
RCS: 0.7046 m2 (medium)
Launch date: June 8, 1973
Source: Commonwealth of Independent States (former USSR) (CIS)
Launch site: PLESETSK MISSILE AND SPACE COMPLEX (PKMTR)
aabbcc
Your satellite tracking list
Your tracking list is empty




NASA's NSSDC Master Catalog

Two Line Element Set (TLE):
1  6675U 73037A   19203.43852250 -.00000022 +00000-0 -36412-4 0  9994
2  6675 074.0176 152.0778 0054516 064.2740 066.5419 12.56564476115504
Source of the keplerian elements: AFSPC